This demonstration page uses our WeatherBlox Daily Observations layout. Learn more.

Left ArrowRight Arrow

Hourly Observations for November 1, 2019

Temp ( °F °C ) Dew Point ( °F °C ) Humidity (%) Winds ( mph kmh ) Pressure ( in mb ) Visibility ( mi km ) Precip ( " mm )
12:53 am 00:53 Clear 41 5 20 -6.7 43 43 Calm 30.14 1021 10 16 0.00 0.00
1:53 am 01:53 Clear 41 5 19 -7.2 41 41 Calm 30.14 1021 10 16 0.00 0.00
2:53 am 02:53 Clear 39 3.9 19 -7.2 45 45 Calm 30.14 1021 10 16 0.00 0.00
3:53 am 03:53 Clear 38 3.3 20 -6.7 48 48 Calm 30.13 1020 10 16 0.00 0.00
4:53 am 04:53 Clear 39 3.9 18 -7.8 43 43 NE 3 6 30.13 1020 10 16 0.00 0.00
5:53 am 05:53 Clear 36 2.2 18 -7.8 48 48 Calm 30.15 1021 10 16 0.00 0.00
6:53 am 06:53 Clear 36 2.2 19 -7.2 50 50 Calm 30.16 1021 10 16 0.00 0.00
7:53 am 07:53 Sunny 35 1.7 20 -6.7 54 54 Calm 30.17 1022 10 16 0.00 0.00
8:53 am 08:53 Sunny 42 5.6 19 -7.2 40 40 Calm 30.19 1022 10 16 0.00 0.00
9:53 am 09:53 Sunny 49 9.4 20 -6.7 32 32 Calm 30.19 1022 10 16 0.00 0.00
10:53 am 10:53 Sunny 56 13.3 21 -6.1 26 26 Calm 30.18 1022 10 16 0.00 0.00
11:53 am 11:53 Sunny 63 17.2 22 -5.6 21 21 Calm 30.16 1021 10 16 0.00 0.00
12:53 pm 12:53 Sunny 70 21.1 22 -5.6 16 16 Calm 30.13 1020 10 16 0.00 0.00
1:53 pm 13:53 Sunny 75 23.9 21 -6.1 13 13 VRB 3 6 30.10 1019 10 16 0.00 0.00
2:53 pm 14:53 Sunny 79 26.1 20 -6.7 11 11 Calm 30.07 1018 10 16 0.00 0.00
3:53 pm 15:53 Sunny 79 26.1 21 -6.1 11 11 SSW 3 6 30.06 1018 10 16 0.00 0.00
4:53 pm 16:53 Sunny 80 26.7 24 -4.4 13 13 SW 6 9 30.05 1018 10 16 0.00 0.00
5:53 pm 17:53 Sunny 73 22.8 27 -2.8 18 18 SSE 6 9 30.05 1018 10 16 0.00 0.00
6:53 pm 18:53 Clear 64 17.8 27 -2.8 25 25 SSE 7 11 30.08 1019 10 16 0.00 0.00
7:53 pm 19:53 Clear 61 16.1 26 -3.3 26 26 Calm 30.09 1019 10 16 0.00 0.00
8:53 pm 20:53 Clear 58 14.4 27 -2.8 31 31 Calm 30.11 1020 10 16 0.00 0.00
9:53 pm 21:53 Clear 53 11.7 27 -2.8 37 37 Calm 30.13 1020 10 16 0.00 0.00
10:53 pm 22:53 Clear 49 9.4 26 -3.3 41 41 Calm 30.15 1021 10 16 0.00 0.00
11:53 pm 23:53 Clear 48 8.9 27 -2.8 44 44 Calm 30.16 1021 10 16 0.00 0.00

Powered by AerisWeather